Weather in Volokolamsk

Russia / Moscow Oblast     56°02′08″N   35°57′30″E
temp.,
°C
wind,
m/s
gust,
m/s
humid.,
%
clouds,
%
prec.,
mm/h
press.,
hPa
HPBL,
m
1 march, mon
mon100:00−5n229562 0.0 102224
03:00−7nw129861 0.1 102321
06:00−7wnw129770 0.0 102429
09:00−6wsw239143 0.0 102598
12:00−1wsw479493 0.0 1023326
15:00+1w5109394 0.1 1022686
18:00+1w51292100 0.0 1020551
21:00+1w61393100 0.0 1018611
2 march, tue
tue200:00+1w51392100 0.0 1015548
03:00+1w61393100 0.0 1014814
06:00+1wnw61393100 0.0 1011706
09:00+1wnw51190100 0.1 1011675
12:00+1wnw51093100 0.1 1010784
15:00+1nw51093100 0.2 1009807
18:00−1nw4118966 0.1 1010459
21:00−1nnw6118680 0.2 1012962
3 march, wed
wed300:00−1nw5128599 0.1 10141158
03:00−3nnw6138783 0.4 1016711
06:00−4nw613854 0.0 1017782
09:00−4nw5129012 0.0 1019597
12:00−1wnw698784 0.1 1018826
15:000wnw698492 0.1 1017864
18:00−1wnw61185100 0.0 1016755
21:00−2w51189100 0.1 1015835
4 march, thu
thu400:00−1wsw51287100 0.0 1011737
03:00−1wsw71589100 0.0 1008639
06:00−1wsw7158595 0.0 1004791
09:00−1wsw7138797 0.0 1001839
12:000w61290100 0.0 1000987
15:000wsw61198100 0.3 1000735
18:00−2wnw3982100 2.4 1001678
21:00−5nw388698 2.4 1004216
5 march, fri
fri500:00−6nw38920 0.0 1005204
03:00−8nnw249421 0.0 1007107
06:00−9nnw22950 0.0 100828
09:00−8wnw11930 0.0 101094
12:00−5wnw11770 0.0 1010446
15:00−4nw11700 0.0 1011525
18:00−7nnw11840 0.0 101121
21:00−8se01820 0.0 101221